Location: Newark
(9.4667°S, 159.8167°E)
Time: 09:51:33
(UTC+00:00)

Courier 1B Rocket - Pass Details

Date: 20 November 2019
Orbit: 920 x 1202 km, 28.2° (Epoch: 08 December)

Event Time Altitude Azimuth Distance (km) Brightness Sun altitude
Rises 21:52:32 0° 238° (WSW) 3,580 7.7 42.2°
Reaches altitude 10° 21:55:11 10° 235° (SW) 2,620 7.1 42.8°
Maximum altitude 22:01:24 68° 153° (SSE) 986 6.3 44.2°
Drops below altitude 10° 22:07:40 10° 70° (ENE) 2,634 8.0 45.7°
Sets 22:10:20 0° 68° (ENE) 3,601 8.4 46.3°
